Time,TemperatureF,DewpointF,PressureIn,WindDirection,WindDirectionDegrees,WindSpeedMPH,WindSpeedGustMPH,Humidity,HourlyPrecipIn,Conditions,Clouds,dailyrainin,SolarRadiationWatts/m^2,SoftwareType,DateUTC
2013-04-07 00:03:00,34.6,30.0,30.14,West,278,4.0,4.0,83,0.00,CLR,,0.00,0.0,WeatherDisplay:10.37,2013-04-06 22:03:00,
2013-04-07 00:09:00,34.6,30.0,30.14,West,277,4.6,4.6,83,0.00,CLR,,0.00,0.0,WeatherDisplay:10.37,2013-04-06 22:09:00,
2013-04-07 00:15:00,34.6,30.0,30.15,West,275,5.0,5.0,83,0.00,CLR,,0.00,0.0,WeatherDisplay:10.37,2013-04-06 22:15:00,
2013-04-07 00:20:00,34.6,30.0,30.14,West,275,4.0,4.0,83,0.00,CLR,,0.00,0.0,WeatherDisplay:10.37,2013-04-06 22:20:00,
2013-04-07 00:25:00,34.6,30.0,30.14,West,275,4.6,4.6,83,0.00,CLR,,0.00,0.0,WeatherDisplay:10.37,2013-04-06 22:25:00,
2013-04-07 00:31:00,34.6,30.0,30.14,West,275,3.5,3.5,83,0.00,CLR,,0.00,0.0,WeatherDisplay:10.37,2013-04-06 22:31:00,
2013-04-07 00:37:00,34.6,30.0,30.14,West,275,4.0,4.0,83,0.00,CLR,,0.00,0.0,WeatherDisplay:10.37,2013-04-06 22:37:00,
2013-04-07 00:42:00,34.6,30.0,30.15,West,275,4.0,4.0,83,0.00,CLR,,0.00,0.0,WeatherDisplay:10.37,2013-04-06 22:42:00,
2013-04-07 00:47:00,34.6,30.0,30.15,West,275,4.6,4.6,83,0.00,CLR,,0.00,0.0,WeatherDisplay:10.37,2013-04-06 22:47:00,
2013-04-07 00:53:00,34.6,30.0,30.15,West,275,4.6,4.6,83,0.00,CLR,,0.00,0.0,WeatherDisplay:10.37,2013-04-06 22:53:00,
2013-04-07 00:59:00,34.5,29.9,30.15,West,275,4.0,4.0,83,0.00,CLR,,0.00,0.0,WeatherDisplay:10.37,2013-04-06 22:59:00,
2013-04-07 01:05:00,34.5,29.9,30.15,West,275,3.5,3.5,83,0.00,CLR,,0.00,0.0,WeatherDisplay:10.37,2013-04-06 23:05:00,
2013-04-07 01:10:00,34.5,29.9,30.15,West,275,4.0,4.0,83,0.00,CLR,,0.00,0.0,WeatherDisplay:10.37,2013-04-06 23:10:00,
2013-04-07 01:16:00,34.5,29.9,30.15,West,275,4.0,4.0,83,0.00,CLR,,0.00,0.0,WeatherDisplay:10.37,2013-04-06 23:16:00,
2013-04-07 01:22:00,34.5,29.9,30.15,West,275,3.5,3.5,83,0.00,CLR,,0.00,0.0,WeatherDisplay:10.37,2013-04-06 23:22:00,
2013-04-07 01:27:00,34.5,29.9,30.15,West,276,3.5,3.5,83,0.00,CLR,,0.00,0.0,WeatherDisplay:10.37,2013-04-06 23:27:00,
2013-04-07 01:32:00,34.5,29.9,30.15,West,275,3.5,3.5,83,0.00,CLR,,0.00,0.0,WeatherDisplay:10.37,2013-04-06 23:32:00,
2013-04-07 01:37:00,34.5,29.9,30.15,West,275,3.5,3.5,83,0.00,CLR,,0.00,0.0,WeatherDisplay:10.37,2013-04-06 23:37:00,
2013-04-07 01:44:00,34.5,29.9,30.15,West,275,3.5,3.5,83,0.00,CLR,,0.00,0.0,WeatherDisplay:10.37,2013-04-06 23:44:00,
2013-04-07 01:49:00,34.5,29.9,30.15,West,275,3.5,3.5,83,0.00,CLR,,0.00,0.0,WeatherDisplay:10.37,2013-04-06 23:49:00,
2013-04-07 01:55:00,34.4,29.8,30.15,West,275,4.0,4.0,83,0.00,CLR,,0.00,0.0,WeatherDisplay:10.37,2013-04-06 23:55:00,
2013-04-07 02:00:00,34.4,29.8,30.15,West,275,3.5,3.5,83,0.00,CLR,,0.00,0.0,WeatherDisplay:10.37,2013-04-07 00:00:00,
2013-04-07 02:05:00,34.4,29.8,30.15,West,275,4.6,4.6,83,0.00,CLR,,0.00,0.0,WeatherDisplay:10.37,2013-04-07 00:05:00,
2013-04-07 02:10:00,34.4,29.8,30.14,West,275,4.6,4.6,83,0.00,CLR,,0.00,0.0,WeatherDisplay:10.37,2013-04-07 00:10:00,
2013-04-07 02:16:00,34.4,29.8,30.15,West,275,5.0,5.0,83,0.00,CLR,,0.00,0.0,WeatherDisplay:10.37,2013-04-07 00:16:00,
2013-04-07 02:21:00,34.3,29.7,30.15,West,275,4.0,4.0,83,0.00,CLR,,0.00,0.0,WeatherDisplay:10.37,2013-04-07 00:21:00,
2013-04-07 02:26:00,34.3,29.7,30.15,West,275,4.0,4.0,83,0.00,CLR,,0.00,0.0,WeatherDisplay:10.37,2013-04-07 00:26:00,
2013-04-07 02:32:00,34.3,29.7,30.14,West,275,3.5,3.5,83,0.00,CLR,,0.00,0.0,WeatherDisplay:10.37,2013-04-07 00:32:00,
2013-04-07 02:37:00,34.3,29.7,30.14,West,275,4.0,4.0,83,0.00,CLR,,0.00,0.0,WeatherDisplay:10.37,2013-04-07 00:37:00,
2013-04-07 02:42:00,34.2,29.6,30.14,West,275,4.6,4.6,83,0.00,CLR,,0.00,0.0,WeatherDisplay:10.37,2013-04-07 00:42:00,
2013-04-07 02:48:00,34.2,29.6,30.14,WNW,285,4.6,4.6,83,0.00,CLR,,0.00,0.0,WeatherDisplay:10.37,2013-04-07 00:48:00,
2013-04-07 02:54:00,34.2,29.6,30.14,WNW,286,3.5,3.5,83,0.00,CLR,,0.00,0.0,WeatherDisplay:10.37,2013-04-07 00:54:00,
2013-04-07 02:59:00,34.1,29.5,30.14,WNW,286,4.0,4.0,83,0.00,CLR,,0.00,0.0,WeatherDisplay:10.37,2013-04-07 00:59:00,
2013-04-07 03:04:00,34.1,29.5,30.14,WNW,286,4.0,4.0,83,0.00,CLR,,0.00,0.0,WeatherDisplay:10.37,2013-04-07 01:04:00,
2013-04-07 03:09:00,34.0,29.4,30.14,WNW,285,5.0,5.0,83,0.00,CLR,,0.00,0.0,WeatherDisplay:10.37,2013-04-07 01:09:00,
2013-04-07 03:15:00,34.0,29.4,30.14,WNW,286,6.0,6.0,83,0.00,CLR,,0.00,0.0,WeatherDisplay:10.37,2013-04-07 01:15:00,
2013-04-07 03:20:00,34.0,29.4,30.14,WNW,284,4.0,4.0,83,0.00,CLR,,0.00,0.0,WeatherDisplay:10.37,2013-04-07 01:20:00,
2013-04-07 03:25:00,34.0,29.4,30.14,WNW,285,4.6,4.6,83,0.00,CLR,,0.00,0.0,WeatherDisplay:10.37,2013-04-07 01:25:00,
2013-04-07 03:30:00,34.0,29.4,30.14,WNW,284,5.0,5.0,83,0.00,CLR,,0.00,0.0,WeatherDisplay:10.37,2013-04-07 01:30:00,
2013-04-07 03:35:00,34.0,29.4,30.14,WNW,284,4.0,4.0,83,0.00,CLR,,0.00,0.0,WeatherDisplay:10.37,2013-04-07 01:35:00,
2013-04-07 03:40:00,33.9,29.3,30.14,WNW,285,5.0,5.0,83,0.00,CLR,,0.00,0.0,WeatherDisplay:10.37,2013-04-07 01:40:00,
2013-04-07 03:45:00,33.9,29.3,30.14,WNW,285,3.5,3.5,83,0.00,CLR,,0.00,0.0,WeatherDisplay:10.37,2013-04-07 01:45:00,
2013-04-07 03:50:00,33.9,29.3,30.14,WNW,285,4.0,4.0,83,0.00,CLR,,0.00,0.0,WeatherDisplay:10.37,2013-04-07 01:50:00,
2013-04-07 03:55:00,33.8,29.2,30.14,WNW,284,4.6,4.6,83,0.00,CLR,,0.00,0.0,WeatherDisplay:10.37,2013-04-07 01:55:00,
2013-04-07 04:00:00,33.8,29.2,30.14,WNW,284,5.0,5.0,83,0.00,CLR,,0.00,0.0,WeatherDisplay:10.37,2013-04-07 02:00:00,
2013-04-07 04:05:00,33.7,29.1,30.14,WNW,285,5.0,5.0,83,0.00,CLR,,0.00,0.0,WeatherDisplay:10.37,2013-04-07 02:05:00,
2013-04-07 04:10:00,33.7,29.1,30.14,WNW,285,4.6,4.6,83,0.00,CLR,,0.00,0.0,WeatherDisplay:10.37,2013-04-07 02:10:00,
2013-04-07 04:16:00,33.6,29.0,30.14,WNW,285,5.0,5.0,83,0.00,CLR,,0.00,0.0,WeatherDisplay:10.37,2013-04-07 02:16:00,
2013-04-07 04:22:00,33.5,28.9,30.14,WNW,285,4.6,4.6,83,0.00,CLR,,0.00,0.0,WeatherDisplay:10.37,2013-04-07 02:22:00,
2013-04-07 04:27:00,33.5,28.9,30.14,WNW,286,6.0,6.0,83,0.00,CLR,,0.00,0.0,WeatherDisplay:10.37,2013-04-07 02:27:00,
2013-04-07 04:33:00,33.4,28.8,30.14,WNW,286,4.0,4.0,83,0.00,CLR,,0.00,0.0,WeatherDisplay:10.37,2013-04-07 02:33:00,
2013-04-07 04:39:00,33.4,28.8,30.14,WNW,285,4.6,4.6,83,0.00,CLR,,0.00,0.0,WeatherDisplay:10.37,2013-04-07 02:39:00,
2013-04-07 04:44:00,33.4,28.8,30.14,WNW,286,4.0,4.0,83,0.00,CLR,,0.00,0.0,WeatherDisplay:10.37,2013-04-07 02:44:00,
2013-04-07 04:49:00,33.4,28.8,30.14,WNW,286,4.6,4.6,83,0.00,CLR,,0.00,0.0,WeatherDisplay:10.37,2013-04-07 02:49:00,
2013-04-07 04:54:00,33.4,28.8,30.14,WNW,285,3.5,3.5,83,0.00,CLR,,0.00,0.0,WeatherDisplay:10.37,2013-04-07 02:54:00,
2013-04-07 04:59:00,33.4,28.8,30.14,WNW,286,4.6,4.6,83,0.00,CLR,,0.00,0.0,WeatherDisplay:10.37,2013-04-07 02:59:00,
2013-04-07 05:04:00,33.3,28.7,30.14,WNW,286,4.6,4.6,83,0.00,CLR,,0.00,0.0,WeatherDisplay:10.37,2013-04-07 03:04:00,
2013-04-07 05:09:00,33.3,28.7,30.15,WNW,286,6.0,6.0,83,0.00,CLR,,0.00,0.0,WeatherDisplay:10.37,2013-04-07 03:09:00,
2013-04-07 05:15:00,33.3,28.7,30.15,WNW,285,4.0,4.0,83,0.00,CLR,,0.00,0.0,WeatherDisplay:10.37,2013-04-07 03:15:00,
2013-04-07 05:20:00,33.3,28.7,30.15,WNW,285,3.5,3.5,83,0.00,CLR,,0.00,0.0,WeatherDisplay:10.37,2013-04-07 03:20:00,
2013-04-07 05:25:00,33.2,28.6,30.15,WNW,286,3.5,3.5,83,0.00,CLR,,0.00,0.0,WeatherDisplay:10.37,2013-04-07 03:25:00,
2013-04-07 05:30:00,33.2,28.6,30.15,WNW,285,4.6,4.6,83,0.00,CLR,,0.00,0.0,WeatherDisplay:10.37,2013-04-07 03:30:00,
2013-04-07 05:35:00,33.2,28.6,30.14,WNW,285,4.0,4.0,83,0.00,CLR,,0.00,0.0,WeatherDisplay:10.37,2013-04-07 03:35:00,
2013-04-07 05:40:00,33.2,28.6,30.14,WNW,285,4.0,4.0,83,0.00,CLR,,0.00,0.0,WeatherDisplay:10.37,2013-04-07 03:40:00,
2013-04-07 05:45:00,33.1,28.5,30.14,WNW,286,3.5,3.5,83,0.00,CLR,,0.00,0.0,WeatherDisplay:10.37,2013-04-07 03:45:00,
2013-04-07 05:50:00,33.1,28.5,30.14,WNW,286,3.5,3.5,83,0.00,CLR,,0.00,0.0,WeatherDisplay:10.37,2013-04-07 03:50:00,
2013-04-07 05:55:00,33.2,28.6,30.14,WNW,286,4.0,4.0,83,0.00,CLR,,0.00,0.0,WeatherDisplay:10.37,2013-04-07 03:55:00,
2013-04-07 06:00:00,33.1,28.5,30.14,WNW,286,4.6,4.6,83,0.00,OVC,,0.00,0.0,WeatherDisplay:10.37,2013-04-07 04:00:00,
2013-04-07 06:02:00,33.1,28.5,30.14,WNW,285,5.0,5.0,83,0.00,OVC,,0.00,0.0,WeatherDisplay:10.37,2013-04-07 04:02:00,
2013-04-07 06:04:00,33.1,28.5,30.14,WNW,286,5.0,5.0,83,0.00,OVC,,0.00,0.0,WeatherDisplay:10.37,2013-04-07 04:04:00,
2013-04-07 06:05:00,33.1,28.5,30.14,WNW,286,4.6,4.6,83,0.00,OVC,,0.00,0.0,WeatherDisplay:10.37,2013-04-07 04:05:00,
2013-04-07 06:10:00,33.0,28.4,30.14,WNW,285,5.0,5.0,83,0.00,OVC,,0.00,0.0,WeatherDisplay:10.37,2013-04-07 04:10:00,
2013-04-07 06:15:00,33.0,28.4,30.14,WNW,285,4.6,4.6,83,0.00,OVC,,0.00,0.0,WeatherDisplay:10.37,2013-04-07 04:15:00,
2013-04-07 06:21:00,32.9,28.3,30.15,WNW,286,4.0,4.0,83,0.00,OVC,,0.00,0.0,WeatherDisplay:10.37,2013-04-07 04:21:00,
2013-04-07 06:26:00,32.9,28.3,30.15,WNW,286,4.0,4.0,83,0.00,OVC,,0.00,0.0,WeatherDisplay:10.37,2013-04-07 04:26:00,
2013-04-07 06:32:00,32.9,28.3,30.15,WNW,285,4.0,4.0,83,0.00,OVC,,0.00,0.0,WeatherDisplay:10.37,2013-04-07 04:32:00,
2013-04-07 06:37:00,32.8,28.2,30.15,WNW,285,4.6,4.6,83,0.00,OVC,,0.00,0.0,WeatherDisplay:10.37,2013-04-07 04:37:00,
2013-04-07 06:42:00,32.8,28.2,30.15,WNW,286,4.0,4.0,83,0.00,OVC,,0.00,5.0,WeatherDisplay:10.37,2013-04-07 04:42:00,
2013-04-07 06:47:00,32.7,28.1,30.15,WNW,286,5.0,5.0,83,0.00,OVC,,0.00,5.0,WeatherDisplay:10.37,2013-04-07 04:47:00,
2013-04-07 06:52:00,32.7,28.1,30.15,WNW,286,4.6,4.6,83,0.00,OVC,,0.00,9.0,WeatherDisplay:10.37,2013-04-07 04:52:00,
2013-04-07 06:57:00,32.8,28.2,30.15,WNW,286,4.6,4.6,83,0.00,OVC,,0.00,11.0,WeatherDisplay:10.37,2013-04-07 04:57:00,
2013-04-07 07:02:00,32.8,28.2,30.15,WNW,286,4.6,4.6,83,0.00,OVC,,0.00,16.0,WeatherDisplay:10.37,2013-04-07 05:02:00,
2013-04-07 07:07:00,32.8,28.2,30.16,WNW,286,5.0,5.0,83,0.00,OVC,,0.00,19.0,WeatherDisplay:10.37,2013-04-07 05:07:00,
2013-04-07 07:12:00,32.9,28.3,30.15,WNW,285,5.0,5.0,83,0.00,OVC,,0.00,18.0,WeatherDisplay:10.37,2013-04-07 05:12:00,
2013-04-07 07:17:00,32.9,28.3,30.16,WNW,286,4.6,4.6,83,0.00,OVC,,0.00,18.0,WeatherDisplay:10.37,2013-04-07 05:17:00,
2013-04-07 07:23:00,33.0,28.4,30.16,WNW,283,5.8,5.8,83,0.00,OVC,,0.00,26.0,WeatherDisplay:10.37,2013-04-07 05:23:00,
2013-04-07 07:29:00,33.1,28.5,30.16,WNW,290,6.0,6.0,83,0.00,OVC,,0.00,28.0,WeatherDisplay:10.37,2013-04-07 05:29:00,
2013-04-07 07:34:00,33.1,28.5,30.16,WNW,282,7.0,7.0,83,0.00,OVC,,0.00,26.0,WeatherDisplay:10.37,2013-04-07 05:34:00,
2013-04-07 07:39:00,33.3,28.7,30.16,WNW,298,6.0,6.0,83,0.00,OVC,,0.00,33.0,WeatherDisplay:10.37,2013-04-07 05:39:00,
2013-04-07 07:45:00,33.3,28.7,30.16,WNW,292,7.0,7.0,83,0.00,OVC,,0.00,39.0,WeatherDisplay:10.37,2013-04-07 05:45:00,
2013-04-07 07:51:00,33.4,28.8,30.16,West,281,7.0,7.0,83,0.00,OVC,,0.00,44.0,WeatherDisplay:10.37,2013-04-07 05:51:00,
2013-04-07 07:56:00,33.6,29.0,30.16,WNW,287,8.1,8.1,83,0.00,OVC,,0.00,49.0,WeatherDisplay:10.37,2013-04-07 05:56:00,
2013-04-07 08:01:00,33.7,29.1,30.16,West,279,8.1,8.1,83,0.00,OVC,,0.00,53.0,WeatherDisplay:10.37,2013-04-07 06:01:00,
2013-04-07 08:07:00,33.8,29.2,30.16,WNW,296,8.1,8.1,83,0.00,OVC,,0.00,56.0,WeatherDisplay:10.37,2013-04-07 06:07:00,
2013-04-07 08:12:00,34.0,29.4,30.17,WNW,286,8.0,8.0,83,0.00,OVC,,0.00,54.0,WeatherDisplay:10.37,2013-04-07 06:12:00,
2013-04-07 08:17:00,34.1,29.5,30.16,WNW,303,6.9,6.9,83,0.00,OVC,,0.00,60.0,WeatherDisplay:10.37,2013-04-07 06:17:00,
2013-04-07 08:22:00,34.2,29.6,30.17,NW,325,9.2,9.2,83,0.00,OVC,,0.00,56.0,WeatherDisplay:10.37,2013-04-07 06:22:00,
2013-04-07 08:28:00,34.3,29.7,30.17,NNW,331,6.9,6.9,83,0.00,OVC,,0.00,63.0,WeatherDisplay:10.37,2013-04-07 06:28:00,
2013-04-07 08:33:00,34.4,29.8,30.16,WNW,299,9.2,9.2,83,0.00,OVC,,0.00,84.0,WeatherDisplay:10.37,2013-04-07 06:33:00,
2013-04-07 08:39:00,34.6,30.0,30.16,NW,319,8.1,8.1,83,0.00,OVC,,0.00,83.0,WeatherDisplay:10.37,2013-04-07 06:39:00,
2013-04-07 08:44:00,34.7,30.1,30.17,NW,305,8.1,8.1,83,0.00,OVC,,0.00,95.0,WeatherDisplay:10.37,2013-04-07 06:44:00,
2013-04-07 08:49:00,34.8,30.2,30.17,West,279,9.2,9.2,83,0.00,OVC,,0.00,107.0,WeatherDisplay:10.37,2013-04-07 06:49:00,
2013-04-07 08:54:00,34.8,30.2,30.17,West,279,9.2,9.2,83,0.00,OVC,,0.00,135.0,WeatherDisplay:10.37,2013-04-07 06:54:00,
2013-04-07 08:59:00,35.0,30.4,30.17,NW,318,7.0,7.0,83,0.00,OVC,,0.00,156.0,WeatherDisplay:10.37,2013-04-07 06:59:00,
2013-04-07 09:04:00,35.2,30.6,30.17,NW,315,9.2,9.2,83,0.00,OVC,,0.00,141.0,WeatherDisplay:10.37,2013-04-07 07:04:00,
2013-04-07 09:10:00,35.5,30.8,30.17,WNW,287,7.0,7.0,83,0.00,BKN,,0.00,174.0,WeatherDisplay:10.37,2013-04-07 07:10:00,
2013-04-07 09:15:00,35.8,31.1,30.17,West,274,8.0,8.0,83,0.00,BKN,,0.00,202.0,WeatherDisplay:10.37,2013-04-07 07:15:00,
2013-04-07 09:20:00,36.3,31.6,30.17,NNW,334,8.1,8.1,83,0.00,BKN,,0.00,199.0,WeatherDisplay:10.37,2013-04-07 07:20:00,
2013-04-07 09:25:00,36.3,31.3,30.16,NNW,336,7.0,7.0,82,0.00,BKN,,0.00,251.0,WeatherDisplay:10.37,2013-04-07 07:25:00,
2013-04-07 09:30:00,36.6,31.9,30.17,NW,311,8.0,8.0,83,0.00,BKN,,0.00,206.0,WeatherDisplay:10.37,2013-04-07 07:30:00,
2013-04-07 09:35:00,36.8,31.8,30.17,NW,318,8.1,8.1,82,0.00,OVC,,0.00,146.0,WeatherDisplay:10.37,2013-04-07 07:35:00,
2013-04-07 09:40:00,36.8,31.8,30.17,NNW,329,9.2,9.2,82,0.00,OVC,,0.00,148.0,WeatherDisplay:10.37,2013-04-07 07:40:00,
2013-04-07 09:45:00,36.8,31.8,30.17,West,272,11.5,11.5,82,0.00,OVC,,0.00,120.0,WeatherDisplay:10.37,2013-04-07 07:45:00,
2013-04-07 09:50:00,36.7,31.7,30.17,NNW,342,9.2,9.2,82,0.00,OVC,,0.00,167.0,WeatherDisplay:10.37,2013-04-07 07:50:00,
2013-04-07 09:56:00,36.7,31.7,30.17,North,360,9.2,9.2,82,0.00,OVC,,0.00,197.0,WeatherDisplay:10.37,2013-04-07 07:56:00,
2013-04-07 10:00:00,36.9,31.9,30.17,NW,319,5.8,5.8,82,0.00,OVC,,0.00,193.0,WeatherDisplay:10.37,2013-04-07 08:00:00,
2013-04-07 10:05:00,37.1,32.1,30.17,West,279,7.0,7.0,82,0.00,OVC,,0.00,186.0,WeatherDisplay:10.37,2013-04-07 08:05:00,
2013-04-07 10:11:00,37.2,31.9,30.17,NW,325,8.1,8.1,81,0.00,OVC,,0.00,199.0,WeatherDisplay:10.37,2013-04-07 08:11:00,
2013-04-07 10:16:00,37.6,32.3,30.17,NNW,347,5.8,5.8,81,0.00,BKN,,0.00,209.0,WeatherDisplay:10.37,2013-04-07 08:16:00,
2013-04-07 10:21:00,37.9,32.3,30.17,North,355,7.0,7.0,80,0.00,OVC,,0.00,223.0,WeatherDisplay:10.37,2013-04-07 08:21:00,
2013-04-07 10:26:00,38.0,32.1,30.17,NW,323,6.9,6.9,79,0.00,OVC,,0.00,192.0,WeatherDisplay:10.37,2013-04-07 08:26:00,
2013-04-07 10:31:00,38.2,32.3,30.17,WNW,296,8.1,8.1,79,0.00,BKN,,0.00,308.0,WeatherDisplay:10.37,2013-04-07 08:31:00,
2013-04-07 10:37:00,39.2,32.9,30.17,North,355,7.0,7.0,78,0.00,BKN,,0.00,290.0,WeatherDisplay:10.37,2013-04-07 08:37:00,
2013-04-07 10:42:00,39.6,32.7,30.16,NW,310,8.1,8.1,76,0.00,BKN,,0.00,323.0,WeatherDisplay:10.37,2013-04-07 08:42:00,
2013-04-07 10:47:00,39.8,32.8,30.16,NNW,334,4.6,4.6,76,0.00,BKN,,0.00,299.0,WeatherDisplay:10.37,2013-04-07 08:47:00,
2013-04-07 10:52:00,39.8,32.2,30.16,NW,310,4.0,4.0,74,0.00,OVC,,0.00,123.0,WeatherDisplay:10.37,2013-04-07 08:52:00,
2013-04-07 10:57:00,39.6,32.3,30.16,NNW,339,8.1,8.1,75,0.00,OVC,,0.00,74.0,WeatherDisplay:10.37,2013-04-07 08:57:00,
2013-04-07 11:02:00,39.4,31.8,30.16,North,360,9.2,9.2,74,0.00,OVC,,0.00,109.0,WeatherDisplay:10.37,2013-04-07 09:02:00,
2013-04-07 11:07:00,39.2,31.6,30.16,North,9,8.1,8.1,74,0.00,OVC,,0.00,149.0,WeatherDisplay:10.37,2013-04-07 09:07:00,
2013-04-07 11:12:00,39.0,31.4,30.17,NNW,340,8.1,8.1,74,0.00,OVC,,0.00,163.0,WeatherDisplay:10.37,2013-04-07 09:12:00,
2013-04-07 11:17:00,39.0,31.7,30.17,NW,322,9.2,9.2,75,0.00,OVC,,0.00,165.0,WeatherDisplay:10.37,2013-04-07 09:17:00,
2013-04-07 11:22:00,38.9,31.6,30.17,NW,319,10.4,10.4,75,0.00,OVC,,0.00,156.0,WeatherDisplay:10.37,2013-04-07 09:22:00,
2013-04-07 11:28:00,38.8,31.6,30.17,NNW,339,8.1,8.1,75,0.00,OVC,,0.00,137.0,WeatherDisplay:10.37,2013-04-07 09:28:00,
2013-04-07 11:33:00,38.7,31.8,30.17,NNW,338,9.2,9.2,76,0.00,OVC,,0.00,141.0,WeatherDisplay:10.37,2013-04-07 09:33:00,
2013-04-07 11:38:00,38.7,31.8,30.17,NW,321,8.1,8.1,76,0.00,OVC,,0.00,163.0,WeatherDisplay:10.37,2013-04-07 09:38:00,
2013-04-07 11:43:00,38.6,31.0,30.17,North,350,5.8,5.8,74,0.00,OVC,,0.00,214.0,WeatherDisplay:10.37,2013-04-07 09:43:00,
2013-04-07 11:48:00,39.0,31.7,30.17,NW,315,8.1,8.1,75,0.00,OVC,,0.00,276.0,WeatherDisplay:10.37,2013-04-07 09:48:00,
2013-04-07 11:53:00,39.6,32.0,30.17,NNW,327,8.1,8.1,74,0.00,OVC,,0.00,308.0,WeatherDisplay:10.37,2013-04-07 09:53:00,
2013-04-07 11:58:00,40.3,31.6,30.17,NW,310,9.2,9.2,71,0.00,BKN,,0.00,329.0,WeatherDisplay:10.37,2013-04-07 09:58:00,
2013-04-07 12:03:00,40.5,32.2,30.16,North,355,8.1,8.1,72,0.00,BKN,,0.00,369.0,WeatherDisplay:10.37,2013-04-07 10:03:00,
2013-04-07 12:08:00,40.8,31.8,30.16,NW,312,8.1,8.1,70,0.00,BKN,,0.00,387.0,WeatherDisplay:10.37,2013-04-07 10:08:00,
2013-04-07 12:13:00,41.1,31.3,30.16,NW,313,8.1,8.1,68,0.00,BKN,,0.00,374.0,WeatherDisplay:10.37,2013-04-07 10:13:00,
2013-04-07 12:18:00,41.3,31.5,30.16,NW,311,8.0,8.0,68,0.00,BKN,,0.00,380.0,WeatherDisplay:10.37,2013-04-07 10:18:00,
2013-04-07 12:23:00,41.7,31.9,30.16,NW,319,9.2,9.2,68,0.00,BKN,,0.00,362.0,WeatherDisplay:10.37,2013-04-07 10:23:00,
2013-04-07 12:28:00,41.3,31.5,30.16,NW,309,6.9,6.9,68,0.00,BKN,,0.00,359.0,WeatherDisplay:10.37,2013-04-07 10:28:00,
2013-04-07 12:33:00,41.4,31.3,30.15,NW,324,9.2,9.2,67,0.00,BKN,,0.00,359.0,WeatherDisplay:10.37,2013-04-07 10:33:00,
2013-04-07 12:39:00,41.8,31.6,30.15,North,349,9.2,9.2,67,0.00,BKN,,0.00,378.0,WeatherDisplay:10.37,2013-04-07 10:39:00,
2013-04-07 12:44:00,41.6,31.1,30.15,WNW,303,6.0,6.0,66,0.00,BKN,,0.00,424.0,WeatherDisplay:10.37,2013-04-07 10:44:00,
2013-04-07 12:49:00,41.9,31.4,30.15,NNW,348,5.0,5.0,66,0.00,SCT,,0.00,496.0,WeatherDisplay:10.37,2013-04-07 10:49:00,
2013-04-07 12:54:00,42.9,30.8,30.15,NNW,333,9.2,9.2,62,0.00,SCT,,0.00,575.0,WeatherDisplay:10.37,2013-04-07 10:54:00,
2013-04-07 13:00:00,43.4,31.2,30.15,NW,318,7.0,7.0,62,0.00,SCT,,0.00,464.0,WeatherDisplay:10.37,2013-04-07 11:00:00,
2013-04-07 13:05:00,43.2,31.4,30.14,NW,322,4.6,4.6,63,0.00,OVC,,0.00,162.0,WeatherDisplay:10.37,2013-04-07 11:05:00,
2013-04-07 13:10:00,42.6,31.3,30.14,West,278,8.1,8.1,64,0.00,OVC,,0.00,142.0,WeatherDisplay:10.37,2013-04-07 11:10:00,
2013-04-07 13:15:00,41.8,31.3,30.14,NNW,333,10.4,10.4,66,0.00,OVC,,0.00,172.0,WeatherDisplay:10.37,2013-04-07 11:15:00,
2013-04-07 13:22:00,41.5,31.4,30.14,West,278,9.2,9.2,67,0.00,OVC,,0.00,236.0,WeatherDisplay:10.37,2013-04-07 11:22:00,
2013-04-07 13:27:00,41.5,31.0,30.14,WNW,286,6.0,6.0,66,0.00,OVC,,0.00,265.0,WeatherDisplay:10.37,2013-04-07 11:27:00,
2013-04-07 13:33:00,41.9,31.4,30.14,NW,312,6.9,6.9,66,0.00,OVC,,0.00,283.0,WeatherDisplay:10.37,2013-04-07 11:33:00,
2013-04-07 13:39:00,42.3,31.4,30.14,NNW,342,5.0,5.0,65,0.00,OVC,,0.00,304.0,WeatherDisplay:10.37,2013-04-07 11:39:00,
2013-04-07 13:44:00,42.8,32.2,30.14,NW,309,5.0,5.0,66,0.00,BKN,,0.00,323.0,WeatherDisplay:10.37,2013-04-07 11:44:00,
2013-04-07 13:49:00,43.0,30.9,30.14,North,360,6.0,6.0,62,0.00,BKN,,0.00,346.0,WeatherDisplay:10.37,2013-04-07 11:49:00,
2013-04-07 13:54:00,42.5,30.4,30.13,ENE,65,4.0,4.0,62,0.00,BKN,,0.00,362.0,WeatherDisplay:10.37,2013-04-07 11:54:00,
2013-04-07 13:59:00,42.8,31.5,30.13,NW,317,5.0,5.0,64,0.00,BKN,,0.00,341.0,WeatherDisplay:10.37,2013-04-07 11:59:00,
2013-04-07 14:04:00,42.8,30.3,30.13,North,9,4.6,4.6,61,0.00,OVC,,0.00,253.0,WeatherDisplay:10.37,2013-04-07 12:04:00,
2013-04-07 14:09:00,42.6,31.3,30.13,NNW,331,6.9,6.9,64,0.00,OVC,,0.00,104.0,WeatherDisplay:10.37,2013-04-07 12:09:00,
2013-04-07 14:14:00,42.3,30.6,30.13,NW,326,10.4,10.4,63,0.00,OVC,,0.00,60.0,WeatherDisplay:10.37,2013-04-07 12:14:00,
2013-04-07 14:19:00,41.8,30.9,30.13,North,349,8.1,8.1,65,0.00,OVC,,0.00,63.0,WeatherDisplay:10.37,2013-04-07 12:19:00,
2013-04-07 14:25:00,41.1,29.5,30.13,North,360,4.6,4.6,63,0.00,OVC,,0.00,77.0,WeatherDisplay:10.37,2013-04-07 12:25:00,
2013-04-07 14:30:00,40.9,30.0,30.13,NNW,328,4.6,4.6,65,0.00,OVC,,0.00,93.0,WeatherDisplay:10.37,2013-04-07 12:30:00,
2013-04-07 14:35:00,40.8,29.6,30.13,NW,317,6.9,6.9,64,0.00,OVC,,0.00,114.0,WeatherDisplay:10.37,2013-04-07 12:35:00,
2013-04-07 14:40:00,40.9,29.7,30.13,NNW,339,6.9,6.9,64,0.00,OVC,,0.00,149.0,WeatherDisplay:10.37,2013-04-07 12:40:00,
2013-04-07 14:45:00,40.9,29.3,30.12,NNW,339,3.5,3.5,63,0.00,OVC,,0.00,199.0,WeatherDisplay:10.37,2013-04-07 12:45:00,
2013-04-07 14:51:00,41.4,29.3,30.13,NW,319,4.6,4.6,62,0.00,OVC,,0.00,204.0,WeatherDisplay:10.37,2013-04-07 12:51:00,
2013-04-07 14:57:00,41.7,29.2,30.12,NW,316,6.0,6.0,61,0.00,OVC,,0.00,123.0,WeatherDisplay:10.37,2013-04-07 12:57:00,
2013-04-07 15:02:00,41.6,28.7,30.12,North,9,8.1,8.1,60,0.00,OVC,,0.00,114.0,WeatherDisplay:10.37,2013-04-07 13:02:00,
2013-04-07 15:08:00,41.3,28.9,30.12,North,9,8.1,8.1,61,0.00,OVC,,0.00,148.0,WeatherDisplay:10.37,2013-04-07 13:08:00,
2013-04-07 15:13:00,41.0,28.6,30.12,North,360,5.8,5.8,61,0.00,OVC,,0.00,188.0,WeatherDisplay:10.37,2013-04-07 13:13:00,
2013-04-07 15:19:00,41.2,28.8,30.12,NNW,331,6.0,6.0,61,0.00,OVC,,0.00,236.0,WeatherDisplay:10.37,2013-04-07 13:19:00,
2013-04-07 15:25:00,42.0,29.1,30.12,NNW,327,8.1,8.1,60,0.00,BKN,,0.00,269.0,WeatherDisplay:10.37,2013-04-07 13:25:00,
2013-04-07 15:30:00,42.5,29.2,30.12,NW,314,8.1,8.1,59,0.00,BKN,,0.00,315.0,WeatherDisplay:10.37,2013-04-07 13:30:00,
2013-04-07 15:35:00,42.8,28.2,30.11,NNW,348,3.5,3.5,56,0.00,BKN,,0.00,330.0,WeatherDisplay:10.37,2013-04-07 13:35:00,
2013-04-07 15:40:00,43.2,28.1,30.11,NNE,14,4.0,4.0,55,0.00,BKN,,0.00,308.0,WeatherDisplay:10.37,2013-04-07 13:40:00,
2013-04-07 15:45:00,43.4,27.8,30.11,North,9,3.5,3.5,54,0.00,BKN,,0.00,327.0,WeatherDisplay:10.37,2013-04-07 13:45:00,
2013-04-07 15:50:00,43.5,28.4,30.11,NNE,31,8.1,8.1,55,0.00,BKN,,0.00,336.0,WeatherDisplay:10.37,2013-04-07 13:50:00,
2013-04-07 15:55:00,42.8,27.7,30.11,North,360,6.9,6.9,55,0.00,BKN,,0.00,323.0,WeatherDisplay:10.37,2013-04-07 13:55:00,
2013-04-07 16:01:00,43.2,27.7,30.11,North,351,7.0,7.0,54,0.00,SCT,,0.00,309.0,WeatherDisplay:10.37,2013-04-07 14:01:00,
2013-04-07 16:07:00,42.8,27.3,30.11,NNW,327,4.6,4.6,54,0.00,BKN,,0.00,223.0,WeatherDisplay:10.37,2013-04-07 14:07:00,
2013-04-07 16:12:00,42.8,27.3,30.11,NNW,344,7.0,7.0,54,0.00,OVC,,0.00,104.0,WeatherDisplay:10.37,2013-04-07 14:12:00,
2013-04-07 16:18:00,42.0,28.7,30.11,NE,39,7.0,7.0,59,0.00,OVC,,0.00,83.0,WeatherDisplay:10.37,2013-04-07 14:18:00,
2013-04-07 16:24:00,41.6,28.3,30.11,NE,46,5.0,5.0,59,0.00,OVC,,0.00,90.0,WeatherDisplay:10.37,2013-04-07 14:24:00,
2013-04-07 16:29:00,41.6,27.9,30.11,NNW,331,5.8,5.8,58,0.00,OVC,,0.00,111.0,WeatherDisplay:10.37,2013-04-07 14:29:00,
2013-04-07 16:34:00,41.8,28.1,30.11,NNW,343,3.5,3.5,58,0.00,OVC,,0.00,139.0,WeatherDisplay:10.37,2013-04-07 14:34:00,
2013-04-07 16:39:00,42.0,27.4,30.11,NNW,348,5.0,5.0,56,0.00,OVC,,0.00,160.0,WeatherDisplay:10.37,2013-04-07 14:39:00,
2013-04-07 16:45:00,42.2,27.6,30.11,NNW,343,3.5,3.5,56,0.00,OVC,,0.00,174.0,WeatherDisplay:10.37,2013-04-07 14:45:00,
2013-04-07 16:50:00,42.2,27.2,30.11,NE,51,8.0,8.0,55,0.00,BKN,,0.00,211.0,WeatherDisplay:10.37,2013-04-07 14:50:00,
2013-04-07 16:55:00,42.3,27.3,30.11,NE,49,10.4,10.4,55,0.00,BKN,,0.00,186.0,WeatherDisplay:10.37,2013-04-07 14:55:00,
2013-04-07 17:00:00,42.4,27.8,30.11,North,9,4.6,4.6,56,0.00,OVC,,0.00,155.0,WeatherDisplay:10.37,2013-04-07 15:00:00,
2013-04-07 17:05:00,42.4,27.8,30.11,ENE,58,7.0,7.0,56,0.00,OVC,,0.00,144.0,WeatherDisplay:10.37,2013-04-07 15:05:00,
2013-04-07 17:10:00,42.2,27.2,30.11,NE,55,5.8,5.8,55,0.00,OVC,,0.00,146.0,WeatherDisplay:10.37,2013-04-07 15:10:00,
2013-04-07 17:16:00,42.1,27.1,30.11,North,355,5.0,5.0,55,0.00,OVC,,0.00,144.0,WeatherDisplay:10.37,2013-04-07 15:16:00,
2013-04-07 17:21:00,42.4,27.8,30.10,NNW,340,5.0,5.0,56,0.00,BKN,,0.00,155.0,WeatherDisplay:10.37,2013-04-07 15:21:00,
2013-04-07 17:27:00,42.4,27.4,30.10,NNE,30,5.8,5.8,55,0.00,BKN,,0.00,158.0,WeatherDisplay:10.37,2013-04-07 15:27:00,
2013-04-07 17:32:00,42.5,27.9,30.10,NW,321,6.0,6.0,56,0.00,BKN,,0.00,144.0,WeatherDisplay:10.37,2013-04-07 15:32:00,
2013-04-07 17:37:00,42.7,27.6,30.10,NNW,331,3.5,3.5,55,0.00,BKN,,0.00,132.0,WeatherDisplay:10.37,2013-04-07 15:37:00,
2013-04-07 17:42:00,42.7,27.2,30.10,NNE,28,4.6,4.6,54,0.00,OVC,,0.00,118.0,WeatherDisplay:10.37,2013-04-07 15:42:00,
2013-04-07 17:47:00,42.7,28.1,30.09,North,9,3.5,3.5,56,0.00,SCT,,0.00,234.0,WeatherDisplay:10.37,2013-04-07 15:47:00,
2013-04-07 17:52:00,43.0,27.5,30.09,NNE,12,5.8,5.8,54,0.00,SCT,,0.00,176.0,WeatherDisplay:10.37,2013-04-07 15:52:00,
2013-04-07 17:57:00,43.3,27.8,30.09,NE,46,7.0,7.0,54,0.00,SCT,,0.00,111.0,WeatherDisplay:10.37,2013-04-07 15:57:00,
2013-04-07 18:02:00,42.9,26.9,30.09,NE,40,7.0,7.0,53,0.00,FEW,,0.00,218.0,WeatherDisplay:10.37,2013-04-07 16:02:00,
2013-04-07 18:08:00,43.0,26.1,30.09,ENE,59,6.0,6.0,51,0.00,FEW,,0.00,199.0,WeatherDisplay:10.37,2013-04-07 16:08:00,
2013-04-07 18:14:00,42.9,26.0,30.09,NE,51,10.4,10.4,51,0.00,SCT,,0.00,158.0,WeatherDisplay:10.37,2013-04-07 16:14:00,
2013-04-07 18:20:00,42.6,25.7,30.09,NE,45,5.8,5.8,51,0.00,OVC,,0.00,49.0,WeatherDisplay:10.37,2013-04-07 16:20:00,
2013-04-07 18:25:00,41.9,25.5,30.09,NE,52,7.0,7.0,52,0.00,OVC,,0.00,44.0,WeatherDisplay:10.37,2013-04-07 16:25:00,
2013-04-07 18:30:00,41.5,25.6,30.09,NE,51,5.8,5.8,53,0.00,OVC,,0.00,46.0,WeatherDisplay:10.37,2013-04-07 16:30:00,
2013-04-07 18:35:00,41.3,25.9,30.09,NE,45,5.8,5.8,54,0.00,OVC,,0.00,54.0,WeatherDisplay:10.37,2013-04-07 16:35:00,
2013-04-07 18:40:00,41.1,25.7,30.09,NE,46,3.5,3.5,54,0.00,OVC,,0.00,35.0,WeatherDisplay:10.37,2013-04-07 16:40:00,
2013-04-07 18:45:00,41.0,25.6,30.09,NE,46,3.5,3.5,54,0.00,OVC,,0.00,32.0,WeatherDisplay:10.37,2013-04-07 16:45:00,
2013-04-07 18:50:00,40.9,26.0,30.09,NE,46,4.0,4.0,55,0.00,OVC,,0.00,28.0,WeatherDisplay:10.37,2013-04-07 16:50:00,
2013-04-07 18:56:00,40.8,25.9,30.10,NE,46,3.5,3.5,55,0.00,OVC,,0.00,23.0,WeatherDisplay:10.37,2013-04-07 16:56:00,
2013-04-07 19:01:00,40.8,26.3,30.09,NE,46,3.5,3.5,56,0.00,OVC,,0.00,19.0,WeatherDisplay:10.37,2013-04-07 17:01:00,
2013-04-07 19:06:00,40.7,26.2,30.09,NE,46,4.6,4.6,56,0.00,OVC,,0.00,19.0,WeatherDisplay:10.37,2013-04-07 17:06:00,
2013-04-07 19:12:00,40.5,26.4,30.09,East,82,6.0,6.0,57,0.00,OVC,,0.00,18.0,WeatherDisplay:10.37,2013-04-07 17:12:00,
2013-04-07 19:17:00,40.4,27.2,30.09,East,83,3.5,3.5,59,0.00,OVC,,0.00,16.0,WeatherDisplay:10.37,2013-04-07 17:17:00,
2013-04-07 19:22:00,40.2,27.4,30.09,East,84,3.5,3.5,60,0.00,OVC,,0.00,14.0,WeatherDisplay:10.37,2013-04-07 17:22:00,
2013-04-07 19:27:00,40.0,27.2,30.09,East,84,3.5,3.5,60,0.00,OVC,,0.00,11.0,WeatherDisplay:10.37,2013-04-07 17:27:00,
2013-04-07 19:32:00,39.8,27.4,30.09,East,84,3.5,3.5,61,0.00,BKN,,0.00,7.0,WeatherDisplay:10.37,2013-04-07 17:32:00,
2013-04-07 19:38:00,39.6,27.6,30.09,East,84,2.3,2.3,62,0.00,BKN,,0.00,5.0,WeatherDisplay:10.37,2013-04-07 17:38:00,
2013-04-07 19:44:00,39.4,27.5,30.09,East,84,2.3,2.3,62,0.00,OVC,,0.00,0.0,WeatherDisplay:10.37,2013-04-07 17:44:00,
2013-04-07 19:49:00,39.2,27.7,30.09,East,84,1.2,0.0,63,0.00,OVC,,0.00,0.0,WeatherDisplay:10.37,2013-04-07 17:49:00,
2013-04-07 19:55:00,39.0,27.5,30.09,East,84,1.2,0.0,63,0.00,OVC,,0.00,0.0,WeatherDisplay:10.37,2013-04-07 17:55:00,
2013-04-07 20:00:00,38.8,27.7,30.09,East,84,0.0,0.0,64,0.00,CLR,,0.00,0.0,WeatherDisplay:10.37,2013-04-07 18:00:00,
2013-04-07 20:05:00,38.8,27.7,30.09,East,84,0.0,0.0,64,0.00,CLR,,0.00,0.0,WeatherDisplay:10.37,2013-04-07 18:05:00,
2013-04-07 20:10:00,38.6,27.5,30.09,East,84,1.2,1.2,64,0.00,CLR,,0.00,0.0,WeatherDisplay:10.37,2013-04-07 18:10:00,
2013-04-07 20:16:00,38.5,27.7,30.09,East,84,1.2,0.0,65,0.00,CLR,,0.00,0.0,WeatherDisplay:10.37,2013-04-07 18:16:00,
2013-04-07 20:23:00,38.4,27.7,30.09,East,84,1.2,0.0,65,0.00,CLR,,0.00,0.0,WeatherDisplay:10.37,2013-04-07 18:23:00,
2013-04-07 20:30:00,38.2,27.8,30.09,East,84,2.3,2.3,66,0.00,CLR,,0.00,0.0,WeatherDisplay:10.37,2013-04-07 18:30:00,
2013-04-07 20:35:00,38.0,27.6,30.09,East,84,2.0,2.0,66,0.00,CLR,,0.00,0.0,WeatherDisplay:10.37,2013-04-07 18:35:00,
2013-04-07 20:40:00,37.8,27.8,30.09,East,84,1.2,1.2,67,0.00,CLR,,0.00,0.0,WeatherDisplay:10.37,2013-04-07 18:40:00,
2013-04-07 20:45:00,37.6,27.6,30.09,East,84,1.2,0.0,67,0.00,CLR,,0.00,0.0,WeatherDisplay:10.37,2013-04-07 18:45:00,
2013-04-07 20:50:00,37.3,27.7,30.09,East,84,3.5,3.5,68,0.00,CLR,,0.00,0.0,WeatherDisplay:10.37,2013-04-07 18:50:00,
2013-04-07 20:55:00,36.9,27.3,30.09,East,84,2.3,2.3,68,0.00,CLR,,0.00,0.0,WeatherDisplay:10.37,2013-04-07 18:55:00,
2013-04-07 21:00:00,36.5,27.3,30.09,East,84,1.2,0.0,69,0.00,CLR,,0.00,0.0,WeatherDisplay:10.37,2013-04-07 19:00:00,
2013-04-07 21:05:00,36.1,26.9,30.09,East,84,1.2,1.2,69,0.00,CLR,,0.00,0.0,WeatherDisplay:10.37,2013-04-07 19:05:00,
2013-04-07 21:10:00,35.8,27.0,30.09,East,84,2.3,2.3,70,0.00,CLR,,0.00,0.0,WeatherDisplay:10.37,2013-04-07 19:10:00,
2013-04-07 21:16:00,35.2,26.4,30.09,ESE,120,4.6,4.6,70,0.00,CLR,,0.00,0.0,WeatherDisplay:10.37,2013-04-07 19:16:00,
2013-04-07 21:21:00,34.6,26.2,30.09,ESE,120,3.5,3.5,71,0.00,CLR,,0.00,0.0,WeatherDisplay:10.37,2013-04-07 19:21:00,
2013-04-07 21:26:00,33.8,25.7,30.09,ESE,120,2.3,2.3,72,0.00,CLR,,0.00,0.0,WeatherDisplay:10.37,2013-04-07 19:26:00,
2013-04-07 21:31:00,33.5,25.8,30.08,ESE,120,2.3,2.3,73,0.00,CLR,,0.00,0.0,WeatherDisplay:10.37,2013-04-07 19:31:00,
2013-04-07 21:37:00,33.3,25.6,30.08,ESE,120,2.3,2.3,73,0.00,CLR,,0.00,0.0,WeatherDisplay:10.37,2013-04-07 19:37:00,
2013-04-07 21:42:00,32.9,25.5,30.08,ESE,120,4.0,4.0,74,0.00,CLR,,0.00,0.0,WeatherDisplay:10.37,2013-04-07 19:42:00,
2013-04-07 21:48:00,32.3,24.9,30.08,ESE,120,4.0,4.0,74,0.00,CLR,,0.00,0.0,WeatherDisplay:10.37,2013-04-07 19:48:00,
2013-04-07 21:54:00,31.6,24.9,30.08,ESE,120,3.5,3.5,76,0.00,CLR,,0.00,0.0,WeatherDisplay:10.37,2013-04-07 19:54:00,
2013-04-07 21:59:00,31.2,24.8,30.08,ESE,120,4.0,4.0,77,0.00,CLR,,0.00,0.0,WeatherDisplay:10.37,2013-04-07 19:59:00,
2013-04-07 22:04:00,31.0,24.6,30.08,ESE,120,1.2,1.2,77,0.00,CLR,,0.00,0.0,WeatherDisplay:10.37,2013-04-07 20:04:00,
2013-04-07 22:09:00,30.8,24.7,30.08,ESE,120,2.3,2.3,78,0.00,CLR,,0.00,0.0,WeatherDisplay:10.37,2013-04-07 20:09:00,
2013-04-07 22:14:00,30.4,24.4,30.08,ESE,120,3.5,3.5,78,0.00,CLR,,0.00,0.0,WeatherDisplay:10.37,2013-04-07 20:14:00,
2013-04-07 22:21:00,30.1,24.4,30.07,ESE,120,4.0,4.0,79,0.00,CLR,,0.00,0.0,WeatherDisplay:10.37,2013-04-07 20:21:00,
2013-04-07 22:26:00,29.9,24.2,30.07,ESE,120,4.0,4.0,79,0.00,CLR,,0.00,0.0,WeatherDisplay:10.37,2013-04-07 20:26:00,
2013-04-07 22:31:00,29.7,24.3,30.07,ESE,120,4.0,4.0,80,0.00,CLR,,0.00,0.0,WeatherDisplay:10.37,2013-04-07 20:31:00,
2013-04-07 22:37:00,29.6,24.2,30.07,ESE,120,3.5,3.5,80,0.00,CLR,,0.00,0.0,WeatherDisplay:10.37,2013-04-07 20:37:00,
2013-04-07 22:42:00,29.5,24.1,30.07,ESE,120,2.3,2.3,80,0.00,CLR,,0.00,0.0,WeatherDisplay:10.37,2013-04-07 20:42:00,
2013-04-07 22:47:00,29.5,24.4,30.07,ESE,120,2.3,2.3,81,0.00,CLR,,0.00,0.0,WeatherDisplay:10.37,2013-04-07 20:47:00,
2013-04-07 22:52:00,29.5,24.4,30.07,ESE,120,1.2,1.2,81,0.00,CLR,,0.00,0.0,WeatherDisplay:10.37,2013-04-07 20:52:00,
2013-04-07 22:57:00,29.4,24.3,30.07,ESE,120,0.0,0.0,81,0.00,CLR,,0.00,0.0,WeatherDisplay:10.37,2013-04-07 20:57:00,
2013-04-07 23:02:00,29.2,23.8,30.07,ESE,120,1.2,1.2,80,0.00,CLR,,0.00,0.0,WeatherDisplay:10.37,2013-04-07 21:02:00,
2013-04-07 23:07:00,29.0,23.6,30.07,ESE,120,1.2,1.2,80,0.00,CLR,,0.00,0.0,WeatherDisplay:10.37,2013-04-07 21:07:00,
2013-04-07 23:12:00,28.8,23.4,30.07,ESE,120,3.5,3.5,80,0.00,CLR,,0.00,0.0,WeatherDisplay:10.37,2013-04-07 21:12:00,
2013-04-07 23:17:00,28.7,23.6,30.07,ESE,120,2.3,2.3,81,0.00,CLR,,0.00,0.0,WeatherDisplay:10.37,2013-04-07 21:17:00,
2013-04-07 23:22:00,28.5,23.4,30.07,ESE,120,0.0,0.0,81,0.00,CLR,,0.00,0.0,WeatherDisplay:10.37,2013-04-07 21:22:00,
2013-04-07 23:27:00,28.2,23.1,30.07,ESE,120,0.0,0.0,81,0.00,CLR,,0.00,0.0,WeatherDisplay:10.37,2013-04-07 21:27:00,
2013-04-07 23:32:00,28.0,22.9,30.07,ESE,120,1.2,1.2,81,0.00,CLR,,0.00,0.0,WeatherDisplay:10.37,2013-04-07 21:32:00,
2013-04-07 23:37:00,27.9,22.8,30.07,ESE,120,0.0,0.0,81,0.00,CLR,,0.00,0.0,WeatherDisplay:10.37,2013-04-07 21:37:00,
2013-04-07 23:43:00,27.7,22.6,30.07,ESE,120,0.0,0.0,81,0.00,CLR,,0.00,0.0,WeatherDisplay:10.37,2013-04-07 21:43:00,
2013-04-07 23:49:00,27.5,22.4,30.07,ESE,120,0.0,0.0,81,0.00,CLR,,0.00,0.0,WeatherDisplay:10.37,2013-04-07 21:49:00,
2013-04-07 23:54:00,27.4,22.3,30.07,ESE,120,0.0,0.0,81,0.00,CLR,,0.00,0.0,WeatherDisplay:10.37,2013-04-07 21:54:00,
2013-04-07 23:59:00,27.2,22.1,30.06,ESE,120,0.0,0.0,81,0.00,CLR,,0.00,0.0,WeatherDisplay:10.37,2013-04-07 21:59:00,